Time,TemperatureF,DewpointF,PressureIn,WindDirection,WindDirectionDegrees,WindSpeedMPH,WindSpeedGustMPH,Humidity,HourlyPrecipIn,Conditions,Clouds,dailyrainin,SolarRadiationWatts/m^2,SoftwareType,DateUTC
2013-04-30 00:07:00,43.6,36.2,30.11,East,82,2.0,3.0,75,0.00,,,0.00,0,Wunderground v.1.15,2013-04-30 07:07:00,
2013-04-30 00:17:00,43.6,36.2,30.11,East,92,3.0,5.0,75,0.00,,,0.00,0,Wunderground v.1.15,2013-04-30 07:17:00,
2013-04-30 00:27:00,43.5,35.8,30.11,East,92,3.0,3.0,74,0.00,,,0.00,0,Wunderground v.1.15,2013-04-30 07:27:00,
2013-04-30 00:37:00,43.5,35.8,30.11,East,100,2.0,2.0,74,0.00,,,0.00,0,Wunderground v.1.15,2013-04-30 07:37:00,
2013-04-30 00:52:00,43.6,35.9,30.11,East,82,4.0,6.0,74,0.00,,,0.00,0,Wunderground v.1.15,2013-04-30 07:52:00,
2013-04-30 00:57:00,43.2,35.5,30.11,ESE,112,4.0,4.0,74,0.00,,,0.00,0,Wunderground v.1.15,2013-04-30 07:57:00,
2013-04-30 01:07:00,42.8,35.1,30.11,ESE,110,3.0,3.0,74,0.00,,,0.00,0,Wunderground v.1.15,2013-04-30 08:07:00,
2013-04-30 01:17:00,42.5,35.1,30.12,ESE,114,2.0,6.0,75,0.00,,,0.00,0,Wunderground v.1.15,2013-04-30 08:17:00,
2013-04-30 01:27:00,42.3,35.3,30.12,ESE,114,3.0,4.0,76,0.00,,,0.00,0,Wunderground v.1.15,2013-04-30 08:27:00,
2013-04-30 01:38:00,42.3,34.9,30.12,ESE,113,3.0,5.0,75,0.00,,,0.00,0,Wunderground v.1.15,2013-04-30 08:38:00,
2013-04-30 01:47:00,42.5,35.1,30.12,ESE,110,3.0,4.0,75,0.00,,,0.00,0,Wunderground v.1.15,2013-04-30 08:47:00,
2013-04-30 01:57:00,42.5,35.5,30.12,ESE,116,3.0,3.0,76,0.00,,,0.00,0,Wunderground v.1.15,2013-04-30 08:57:00,
2013-04-30 02:07:00,42.6,35.2,30.12,ESE,112,4.0,6.0,75,0.00,,,0.00,0,Wunderground v.1.15,2013-04-30 09:07:00,
2013-04-30 02:17:00,42.9,35.5,30.12,ESE,112,4.0,7.0,75,0.00,,,0.00,0,Wunderground v.1.15,2013-04-30 09:17:00,
2013-04-30 02:28:00,42.9,35.5,30.12,ESE,109,4.0,8.0,75,0.00,,,0.00,0,Wunderground v.1.15,2013-04-30 09:28:00,
2013-04-30 02:37:00,42.8,35.8,30.12,ESE,116,4.0,4.0,76,0.00,,,0.00,0,Wunderground v.1.15,2013-04-30 09:37:00,
2013-04-30 02:47:00,42.5,35.8,30.12,SE,133,3.0,8.0,77,0.00,,,0.00,0,Wunderground v.1.15,2013-04-30 09:47:00,
2013-04-30 02:57:00,42.3,35.6,30.12,ESE,112,2.0,2.0,77,0.00,,,0.00,0,Wunderground v.1.15,2013-04-30 09:57:00,
2013-04-30 03:07:00,42.3,35.3,30.12,ESE,113,3.0,5.0,76,0.00,,,0.00,0,Wunderground v.1.15,2013-04-30 10:07:00,
2013-04-30 03:17:00,42.3,35.3,30.13,ESE,114,5.0,8.0,76,0.00,,,0.00,0,Wunderground v.1.15,2013-04-30 10:17:00,
2013-04-30 03:31:00,42.3,35.3,30.13,ESE,107,4.0,4.0,76,0.00,,,0.00,0,Wunderground v.1.15,2013-04-30 10:31:00,
2013-04-30 03:37:00,42.2,35.2,30.13,ESE,104,4.0,4.0,76,0.00,,,0.00,0,Wunderground v.1.15,2013-04-30 10:37:00,
2013-04-30 03:47:00,42.1,34.7,30.14,ESE,109,2.0,3.0,75,0.00,,,0.00,0,Wunderground v.1.15,2013-04-30 10:47:00,
2013-04-30 03:57:00,41.9,34.6,30.14,ESE,109,2.0,3.0,75,0.00,,,0.00,0,Wunderground v.1.15,2013-04-30 10:57:00,
2013-04-30 04:07:00,41.8,34.5,30.14,ESE,109,0.0,1.0,75,0.00,,,0.00,0,Wunderground v.1.15,2013-04-30 11:07:00,
2013-04-30 04:17:00,41.5,34.2,30.14,ESE,107,1.0,1.0,75,0.00,,,0.00,0,Wunderground v.1.15,2013-04-30 11:17:00,
2013-04-30 04:27:00,41.2,34.5,30.14,ESE,109,0.0,0.0,77,0.00,,,0.00,0,Wunderground v.1.15,2013-04-30 11:27:00,
2013-04-30 04:37:00,41.1,34.1,30.14,ESE,109,0.0,0.0,76,0.00,,,0.00,0,Wunderground v.1.15,2013-04-30 11:37:00,
2013-04-30 04:48:00,41.2,34.2,30.14,ESE,107,0.0,0.0,76,0.00,,,0.00,0,Wunderground v.1.15,2013-04-30 11:48:00,
2013-04-30 04:57:00,41.3,34.3,30.14,ESE,109,0.0,1.0,76,0.00,,,0.00,0,Wunderground v.1.15,2013-04-30 11:57:00,
2013-04-30 05:07:00,40.6,33.6,30.15,NNW,329,5.0,5.0,76,0.00,,,0.00,0,Wunderground v.1.15,2013-04-30 12:07:00,
2013-04-30 05:18:00,40.5,35.1,30.16,NNW,333,1.0,2.0,81,0.21,,,0.02,0,Wunderground v.1.15,2013-04-30 12:18:00,
2013-04-30 05:32:00,39.5,35.4,30.15,ENE,72,0.0,0.0,85,0.07,,,0.04,0,Wunderground v.1.15,2013-04-30 12:32:00,
2013-04-30 05:47:00,38.6,34.8,30.15,ENE,71,0.0,1.0,86,0.00,,,0.04,0,Wunderground v.1.15,2013-04-30 12:47:00,
2013-04-30 05:57:00,38.3,34.8,30.15,East,93,1.0,6.0,87,0.00,,,0.04,5,Wunderground v.1.15,2013-04-30 12:57:00,
2013-04-30 06:07:00,38.3,35.1,30.16,ESE,109,2.0,3.0,88,0.00,,,0.04,7,Wunderground v.1.15,2013-04-30 13:07:00,
2013-04-30 06:17:00,38.5,35.3,30.16,ESE,103,2.0,2.0,88,0.00,,,0.04,12,Wunderground v.1.15,2013-04-30 13:17:00,
2013-04-30 06:31:00,38.6,35.4,30.17,ESE,103,0.0,0.0,88,0.00,,,0.04,16,Wunderground v.1.15,2013-04-30 13:31:00,
2013-04-30 06:37:00,38.8,35.6,30.17,ESE,103,1.0,1.0,88,0.00,,,0.04,19,Wunderground v.1.15,2013-04-30 13:37:00,
2013-04-30 06:47:00,38.9,35.6,30.17,ESE,103,0.0,1.0,88,0.00,,,0.04,21,Wunderground v.1.15,2013-04-30 13:47:00,
2013-04-30 06:57:00,39.1,35.8,30.17,ESE,104,0.0,0.0,88,0.00,,,0.04,26,Wunderground v.1.15,2013-04-30 13:57:00,
2013-04-30 07:07:00,39.2,35.7,30.18,ESE,104,0.0,2.0,87,0.00,,,0.04,39,Wunderground v.1.15,2013-04-30 14:07:00,
2013-04-30 07:18:00,39.3,35.8,30.19,ESE,104,1.0,1.0,87,0.00,,,0.04,40,Wunderground v.1.15,2013-04-30 14:18:00,
2013-04-30 07:28:00,39.5,36.2,30.19,ESE,106,0.0,1.0,88,0.00,,,0.04,104,Wunderground v.1.15,2013-04-30 14:28:00,
2013-04-30 07:37:00,40.5,37.2,30.19,East,100,0.0,0.0,88,0.00,,,0.04,86,Wunderground v.1.15,2013-04-30 14:37:00,
2013-04-30 07:47:00,41.5,37.0,30.20,East,85,1.0,1.0,84,0.00,,,0.04,216,Wunderground v.1.15,2013-04-30 14:47:00,
2013-04-30 07:58:00,41.6,37.1,30.20,ENE,68,0.0,1.0,84,0.00,,,0.04,146,Wunderground v.1.15,2013-04-30 14:58:00,
2013-04-30 08:08:00,41.6,36.2,30.21,ENE,69,0.0,0.0,81,0.00,,,0.04,134,Wunderground v.1.15,2013-04-30 15:08:00,
2013-04-30 08:18:00,41.9,36.5,30.22,ENE,68,0.0,0.0,81,0.00,,,0.04,127,Wunderground v.1.15,2013-04-30 15:18:00,
2013-04-30 08:28:00,42.1,37.3,30.22,ENE,68,0.0,0.0,83,0.00,,,0.04,146,Wunderground v.1.15,2013-04-30 15:28:00,
2013-04-30 08:37:00,41.9,36.8,30.22,ENE,69,0.0,0.0,82,0.00,,,0.04,113,Wunderground v.1.15,2013-04-30 15:37:00,
2013-04-30 08:51:00,41.8,36.7,30.23,ENE,68,0.0,0.0,82,0.00,,,0.04,114,Wunderground v.1.15,2013-04-30 15:51:00,
2013-04-30 08:57:00,41.8,37.3,30.23,ENE,69,0.0,1.0,84,0.00,,,0.04,106,Wunderground v.1.15,2013-04-30 15:57:00,
2013-04-30 09:17:00,42.3,38.1,30.24,ENE,62,0.0,0.0,85,0.00,,,0.04,336,Wunderground v.1.15,2013-04-30 16:17:00,
2013-04-30 09:27:00,42.8,37.7,30.24,NE,56,0.0,0.0,82,0.00,,,0.04,382,Wunderground v.1.15,2013-04-30 16:27:00,
2013-04-30 09:37:00,42.9,36.5,30.24,ENE,61,0.0,0.0,78,0.00,,,0.04,348,Wunderground v.1.15,2013-04-30 16:37:00,
2013-04-30 09:47:00,43.8,36.4,30.24,East,97,1.0,1.0,75,0.00,,,0.04,280,Wunderground v.1.15,2013-04-30 16:47:00,
2013-04-30 09:57:00,43.9,36.8,30.24,East,90,1.0,1.0,76,0.00,,,0.04,181,Wunderground v.1.15,2013-04-30 16:57:00,
2013-04-30 10:07:00,44.2,37.8,30.25,East,95,0.0,0.0,78,0.00,,,0.04,190,Wunderground v.1.15,2013-04-30 17:07:00,
2013-04-30 10:17:00,44.8,36.7,30.25,East,96,0.0,1.0,73,0.00,,,0.04,172,Wunderground v.1.15,2013-04-30 17:17:00,
2013-04-30 10:27:00,44.5,37.1,30.25,East,95,1.0,1.0,75,0.00,,,0.04,311,Wunderground v.1.15,2013-04-30 17:27:00,
2013-04-30 10:38:00,44.8,36.0,30.25,East,96,0.0,2.0,71,0.00,,,0.04,246,Wunderground v.1.15,2013-04-30 17:38:00,
2013-04-30 10:52:00,44.6,36.5,30.25,East,96,1.0,2.0,73,0.00,,,0.04,206,Wunderground v.1.15,2013-04-30 17:52:00,
2013-04-30 10:58:00,44.9,36.8,30.25,East,96,1.0,2.0,73,0.00,,,0.04,380,Wunderground v.1.15,2013-04-30 17:58:00,
2013-04-30 11:08:00,46.1,36.9,30.26,East,95,0.0,0.0,70,0.00,,,0.04,355,Wunderground v.1.15,2013-04-30 18:08:00,
2013-04-30 11:18:00,47.4,37.0,30.26,East,96,0.0,1.0,67,0.00,,,0.04,306,Wunderground v.1.15,2013-04-30 18:18:00,
2013-04-30 11:28:00,48.9,37.3,30.26,ESE,102,0.0,3.0,64,0.00,,,0.04,936,Wunderground v.1.15,2013-04-30 18:28:00,
2013-04-30 11:41:00,47.4,35.0,30.26,West,278,2.0,2.0,62,0.00,,,0.04,202,Wunderground v.1.15,2013-04-30 18:41:00,
2013-04-30 11:51:00,48.2,35.8,30.27,WNW,282,0.0,0.0,62,0.00,,,0.04,933,Wunderground v.1.15,2013-04-30 18:51:00,
2013-04-30 11:57:00,48.8,36.4,30.27,WSW,258,1.0,2.0,62,0.00,,,0.04,966,Wunderground v.1.15,2013-04-30 18:57:00,
2013-04-30 12:07:00,48.3,32.9,30.27,WNW,292,2.0,3.0,55,0.00,,,0.04,917,Wunderground v.1.15,2013-04-30 19:07:00,
2013-04-30 12:17:00,50.7,35.6,30.27,West,281,1.0,2.0,56,0.00,,,0.04,1024,Wunderground v.1.15,2013-04-30 19:17:00,
2013-04-30 12:27:00,51.9,34.3,30.27,SSW,210,1.0,3.0,51,0.00,,,0.04,164,Wunderground v.1.15,2013-04-30 19:27:00,
2013-04-30 12:38:00,50.1,32.7,30.28,SW,220,1.0,2.0,51,0.00,,,0.04,920,Wunderground v.1.15,2013-04-30 19:38:00,
2013-04-30 12:47:00,49.9,32.0,30.28,NW,315,3.0,3.0,50,0.00,,,0.04,962,Wunderground v.1.15,2013-04-30 19:47:00,
2013-04-30 12:57:00,48.9,32.0,30.28,WNW,301,5.0,5.0,52,0.00,,,0.04,204,Wunderground v.1.15,2013-04-30 19:57:00,
2013-04-30 13:12:00,49.9,33.0,30.28,WNW,289,5.0,5.0,52,0.00,,,0.04,885,Wunderground v.1.15,2013-04-30 20:12:00,
2013-04-30 13:18:00,50.5,32.0,30.28,NW,322,4.0,5.0,49,0.00,,,0.04,873,Wunderground v.1.15,2013-04-30 20:18:00,
2013-04-30 13:32:00,51.3,31.7,30.28,West,261,1.0,1.0,47,0.00,,,0.04,873,Wunderground v.1.15,2013-04-30 20:32:00,
2013-04-30 13:38:00,52.3,32.1,30.28,West,268,2.0,2.0,46,0.00,,,0.04,878,Wunderground v.1.15,2013-04-30 20:38:00,
2013-04-30 13:47:00,52.8,32.0,30.28,West,270,2.0,2.0,45,0.00,,,0.04,887,Wunderground v.1.15,2013-04-30 20:47:00,
2013-04-30 14:01:00,53.1,30.6,30.28,West,261,3.0,3.0,42,0.00,,,0.04,876,Wunderground v.1.15,2013-04-30 21:01:00,
2013-04-30 14:07:00,53.2,30.7,30.28,West,265,2.0,3.0,42,0.00,,,0.04,855,Wunderground v.1.15,2013-04-30 21:07:00,
2013-04-30 14:17:00,51.9,30.1,30.28,NW,313,4.0,4.0,43,0.00,,,0.04,843,Wunderground v.1.15,2013-04-30 21:17:00,
2013-04-30 14:27:00,53.9,30.7,30.28,WNW,296,1.0,3.0,41,0.00,,,0.04,818,Wunderground v.1.15,2013-04-30 21:27:00,
2013-04-30 14:37:00,52.8,29.7,30.29,NNW,329,3.0,3.0,41,0.00,,,0.04,808,Wunderground v.1.15,2013-04-30 21:37:00,
2013-04-30 14:47:00,52.8,30.3,30.29,NW,322,3.0,3.0,42,0.00,,,0.04,790,Wunderground v.1.15,2013-04-30 21:47:00,
2013-04-30 14:57:00,53.5,29.7,30.29,WNW,288,2.0,2.0,40,0.00,,,0.04,774,Wunderground v.1.15,2013-04-30 21:57:00,
2013-04-30 15:07:00,55.3,32.0,30.29,WNW,294,2.0,6.0,41,0.00,,,0.04,767,Wunderground v.1.15,2013-04-30 22:07:00,
2013-04-30 15:17:00,53.3,31.9,30.30,NW,305,4.0,6.0,44,0.00,,,0.04,744,Wunderground v.1.15,2013-04-30 22:17:00,
2013-04-30 15:27:00,53.6,30.4,30.30,WNW,282,4.0,7.0,41,0.00,,,0.04,723,Wunderground v.1.15,2013-04-30 22:27:00,
2013-04-30 15:38:00,53.9,31.3,30.30,WNW,295,3.0,8.0,42,0.00,,,0.04,699,Wunderground v.1.15,2013-04-30 22:38:00,
2013-04-30 15:48:00,54.1,31.5,30.30,WNW,296,4.0,6.0,42,0.00,,,0.04,693,Wunderground v.1.15,2013-04-30 22:48:00,
2013-04-30 15:57:00,54.5,30.0,30.30,WNW,291,3.0,9.0,39,0.00,,,0.04,669,Wunderground v.1.15,2013-04-30 22:57:00,
2013-04-30 16:08:00,53.9,30.7,30.30,West,265,3.0,4.0,41,0.00,,,0.04,639,Wunderground v.1.15,2013-04-30 23:08:00,
2013-04-30 16:22:00,54.4,31.8,30.30,WNW,288,2.0,3.0,42,0.00,,,0.04,607,Wunderground v.1.15,2013-04-30 23:22:00,
2013-04-30 16:28:00,54.1,30.9,30.30,WNW,294,3.0,5.0,41,0.00,,,0.04,635,Wunderground v.1.15,2013-04-30 23:28:00,
2013-04-30 16:41:00,53.8,31.2,30.30,West,271,3.0,5.0,42,0.00,,,0.04,640,Wunderground v.1.15,2013-04-30 23:41:00,
2013-04-30 16:47:00,54.2,31.6,30.31,West,277,3.0,5.0,42,0.00,,,0.04,628,Wunderground v.1.15,2013-04-30 23:47:00,
2013-04-30 16:57:00,52.8,31.5,30.31,West,277,4.0,4.0,44,0.00,,,0.04,169,Wunderground v.1.15,2013-04-30 23:57:00,
2013-04-30 17:11:00,52.6,30.7,30.31,WNW,298,2.0,2.0,43,0.00,,,0.04,308,Wunderground v.1.15,2013-05-01 00:11:00,
2013-04-30 17:17:00,52.3,30.4,30.31,WNW,301,3.0,3.0,43,0.00,,,0.04,572,Wunderground v.1.15,2013-05-01 00:17:00,
2013-04-30 17:32:00,52.5,30.6,30.31,WNW,296,2.0,2.0,43,0.00,,,0.04,209,Wunderground v.1.15,2013-05-01 00:32:00,
2013-04-30 17:37:00,52.5,30.0,30.31,WNW,296,3.0,3.0,42,0.00,,,0.04,267,Wunderground v.1.15,2013-05-01 00:37:00,
2013-04-30 17:47:00,52.6,30.7,30.31,WNW,299,2.0,2.0,43,0.00,,,0.04,185,Wunderground v.1.15,2013-05-01 00:47:00,
2013-04-30 17:57:00,52.2,29.8,30.31,WNW,299,3.0,5.0,42,0.00,,,0.04,162,Wunderground v.1.15,2013-05-01 00:57:00,
2013-04-30 18:07:00,51.9,30.6,30.31,WNW,301,2.0,3.0,44,0.00,,,0.04,164,Wunderground v.1.15,2013-05-01 01:07:00,
2013-04-30 18:22:00,52.2,30.9,30.32,WNW,302,2.0,2.0,44,0.00,,,0.04,127,Wunderground v.1.15,2013-05-01 01:22:00,
2013-04-30 18:27:00,52.3,30.4,30.32,WNW,292,2.0,2.0,43,0.00,,,0.04,113,Wunderground v.1.15,2013-05-01 01:27:00,
2013-04-30 18:37:00,52.0,31.3,30.32,WNW,294,1.0,2.0,45,0.00,,,0.04,125,Wunderground v.1.15,2013-05-01 01:37:00,
2013-04-30 18:48:00,51.7,30.5,30.32,WNW,294,2.0,4.0,44,0.00,,,0.04,106,Wunderground v.1.15,2013-05-01 01:48:00,
2013-04-30 18:58:00,51.6,30.4,30.32,WNW,292,2.0,3.0,44,0.00,,,0.04,84,Wunderground v.1.15,2013-05-01 01:58:00,
2013-04-30 19:08:00,51.7,30.5,30.32,WNW,292,1.0,1.0,44,0.00,,,0.04,160,Wunderground v.1.15,2013-05-01 02:08:00,
2013-04-30 19:18:00,51.7,31.0,30.32,WNW,292,1.0,2.0,45,0.00,,,0.04,60,Wunderground v.1.15,2013-05-01 02:18:00,
2013-04-30 19:28:00,51.1,31.6,30.32,WNW,292,2.0,2.0,47,0.00,,,0.04,42,Wunderground v.1.15,2013-05-01 02:28:00,
2013-04-30 19:41:00,50.7,31.2,30.33,WNW,294,1.0,1.0,47,0.00,,,0.04,39,Wunderground v.1.15,2013-05-01 02:41:00,
2013-04-30 19:47:00,50.5,30.5,30.33,WNW,294,1.0,1.0,46,0.00,,,0.04,37,Wunderground v.1.15,2013-05-01 02:47:00,
2013-04-30 19:57:00,50.2,30.2,30.33,WNW,294,1.0,3.0,46,0.00,,,0.04,26,Wunderground v.1.15,2013-05-01 02:57:00,
2013-04-30 20:07:00,50.1,31.2,30.33,WNW,292,1.0,2.0,48,0.00,,,0.04,16,Wunderground v.1.15,2013-05-01 03:07:00,
2013-04-30 20:17:00,49.6,31.2,30.33,WNW,292,0.0,0.0,49,0.00,,,0.04,9,Wunderground v.1.15,2013-05-01 03:17:00,
2013-04-30 20:27:00,49.4,31.0,30.33,WNW,292,0.0,0.0,49,0.00,,,0.04,5,Wunderground v.1.15,2013-05-01 03:27:00,
2013-04-30 20:42:00,48.9,31.5,30.33,WNW,292,0.0,0.0,51,0.00,,,0.04,0,Wunderground v.1.15,2013-05-01 03:42:00,
2013-04-30 20:47:00,48.8,31.9,30.34,WNW,292,0.0,0.0,52,0.00,,,0.04,0,Wunderground v.1.15,2013-05-01 03:47:00,
2013-04-30 20:57:00,48.5,32.1,30.34,WNW,291,0.0,0.0,53,0.00,,,0.04,0,Wunderground v.1.15,2013-05-01 03:57:00,
2013-04-30 21:02:00,48.3,32.4,30.34,WNW,289,0.0,0.0,54,0.00,,,0.04,0,Wunderground v.1.15,2013-05-01 04:02:00,
2013-04-30 21:07:00,48.2,32.3,30.34,WNW,282,0.0,0.0,54,0.00,,,0.04,0,Wunderground v.1.15,2013-05-01 04:07:00,
2013-04-30 21:12:00,48.0,32.6,30.34,West,261,0.0,0.0,55,0.00,,,0.04,0,Wunderground v.1.15,2013-05-01 04:12:00,
2013-04-30 21:17:00,47.7,32.3,30.35,WNW,294,0.0,0.0,55,0.00,,,0.04,0,Wunderground v.1.15,2013-05-01 04:17:00,
2013-04-30 21:32:00,47.4,32.9,30.35,WNW,294,0.0,0.0,57,0.00,,,0.04,0,Wunderground v.1.15,2013-05-01 04:32:00,
2013-04-30 21:37:00,47.1,33.1,30.35,WNW,294,0.0,0.0,58,0.00,,,0.04,0,Wunderground v.1.15,2013-05-01 04:37:00,
2013-04-30 21:48:00,46.8,33.2,30.36,WNW,294,0.0,0.0,59,0.00,,,0.04,0,Wunderground v.1.15,2013-05-01 04:48:00,
2013-04-30 21:58:00,46.5,33.4,30.36,WNW,294,0.0,0.0,60,0.00,,,0.04,0,Wunderground v.1.15,2013-05-01 04:58:00,
2013-04-30 22:08:00,46.2,32.7,30.36,WNW,292,0.0,0.0,59,0.00,,,0.04,0,Wunderground v.1.15,2013-05-01 05:08:00,
2013-04-30 22:18:00,46.1,33.0,30.37,WNW,292,0.0,0.0,60,0.00,,,0.04,0,Wunderground v.1.15,2013-05-01 05:18:00,
2013-04-30 22:28:00,46.1,33.0,30.37,WNW,292,0.0,0.0,60,0.00,,,0.04,0,Wunderground v.1.15,2013-05-01 05:28:00,
2013-04-30 22:38:00,45.8,32.3,30.37,WNW,292,0.0,0.0,59,0.00,,,0.04,0,Wunderground v.1.15,2013-05-01 05:38:00,
2013-04-30 22:47:00,45.4,30.6,30.37,WNW,291,0.0,0.0,56,0.00,,,0.04,0,Wunderground v.1.15,2013-05-01 05:47:00,
2013-04-30 22:57:00,45.2,30.9,30.37,WNW,289,0.0,0.0,57,0.00,,,0.04,0,Wunderground v.1.15,2013-05-01 05:57:00,
2013-04-30 23:07:00,45.2,29.5,30.38,WNW,289,0.0,0.0,54,0.00,,,0.04,0,Wunderground v.1.15,2013-05-01 06:07:00,
2013-04-30 23:17:00,45.2,29.1,30.38,WNW,289,0.0,0.0,53,0.00,,,0.04,0,Wunderground v.1.15,2013-05-01 06:17:00,
2013-04-30 23:27:00,44.9,31.4,30.38,WNW,285,0.0,0.0,59,0.00,,,0.04,0,Wunderground v.1.15,2013-05-01 06:27:00,
2013-04-30 23:37:00,44.8,30.5,30.38,WNW,285,0.0,0.0,57,0.00,,,0.04,0,Wunderground v.1.15,2013-05-01 06:37:00,
2013-04-30 23:47:00,44.8,31.3,30.39,WNW,285,0.0,1.0,59,0.00,,,0.04,0,Wunderground v.1.15,2013-05-01 06:47:00,